BEIDOU-3 M15 (C34)

Last updated on Sat Aug 15 2026 00:03:26 GMT+0000 (Coordinated Universal Time)

1 43648U 18078B 26226.13988688 -.00000061 00000+0 00000+0 0 9994 2 43648 54.0302 297.9510 0002872 48.9958 311.1016 1.86227469 53259
UTC large
Height (km)
Speed (km/s)
/
Latitude / Longitude
Inclination (degrees)
Orbital Period (minutes)
Azimuth
Elevation
Range (km)
Doppler Factor

Next 0 passes for location: London (51.5072 / 0.1276)

No passes found over London.
BEIDOU-3 M15 (C34)